Showing default

GAOFEN 9 05, 46232

Orbit data source: Space-Track

GAOFEN 9 05, 46232 is a payload satellite owned by GGKGJ (CN) in SSO that was launched on Sun, 23 Aug 2020 UTC via a CHANG ZHENG 2D launch vehicle from the Jiuquan Satellite Launch Center, China (JSC). Payloads include a variety of satellites, spacecraft, and rockets equipped with specific instruments for various scientific and technological missions. These include communications satellites like Starlink; space stations such as the ISS; scientific satellites like the Hubble; Earth observation satellites from companies like Planet Labs, Umbra, and HawkEye 360; GPS; miniature CubeSats for education and research; and military/defense satellites.

Loading next visibility...
GAOFEN 9 05 details
Identifier
46232, 2020-058A
Orbit
SSO
Last TLE update6 hours ago
Origin
Flag of CNGGKGJ (CN / PRC)
ManufacturerDFH
MissionOperational Defense Imaging
Bus & MotorCAST-3000, AOCS
Mass~1,700 kg wet, ~1,500 kg dry
Launch date (UTC)
2020-08-23 (4 years ago)
Launch vehicle
CHANG ZHENG 2D
Launch site
Jiuquan Satellite Launch Center, China (JSC)
Object type
Payload
Rocket body
Debris
Shape & HBRBox + 2 Pan, Unknown HBR
Radar Cross Section4.991 m², Large (>1 m²)

Expand to show TLE details & history

TLE from 6 hours ago
0 GAOFEN 9 05
1 46232U 20058A   24361.25669937  .00011519  00000-0  51020-3 0  9993
2 46232  97.2868  45.9809 0009268 209.2664 150.8054 15.21754572241513
Epoch: 2024-12-26T06:09Z
Definitive object data (Epoch: 2024-12-26T06:09:38.825Z)
Latitude-0.00006°
Longitude-141.66956°
Altitude509.212 km
Speed7.606 km/s
True Right ascension03h 03m 55s
True Declination0° 00' 00"
Sunlit
Object was in full shadow at TLE epoch
Visualization TLE readout
Latitude-60.16116°
Longitude-128.61692°
Altitude523.859 km
Speed7.6 km/s
Apparent Right ascension01h 19m 19s
Apparent Declination-54° 53' 06"
Sunlit
Object is in daylight
Visualization observer readout
Local Sidereal Time11:33:50
Azimuth220.731° SW
Elevation-66.95°
Doppler factor1
Orbital elements
Apogee altitude503.879 km
Perigee altitude491.134 km
Semi-major axis6,875.644 km
Eccentricity0.0009268
Inclination97.2868°
RAAN45.9809°
Arg. of periapsis209.2664°
True anomaly150.85715°
Mean anomaly150.8054°
Eccentric anomaly150.83128°
Mean motion3.80691 °/min
BSTAR0.0005102
Orbital period94.56 mins
Loading maneuver chart data...
Loading historical data...
Loading historical data...
Loading historical data...
Loading historical data...
Loading historical data...
Loading historical data...
Loading historical data...
Other satellites on launch #58 in the year 2020 (2020-08-23 UTC)

GAOFEN 9 05 Visibility forecast

Observer location: undefined°, undefined

Span
Click to sort rows by Start time (UTC) header in descending order
Start Az.
Max El. time (UTC)
Max El. Az.
Max El.
End time (UTC)
End Az.
6 mins2024-12-26 16:11:22.290Z6.968° NNE2024-12-26 16:14:22.290Z297.372° NW43.709°2024-12-26 16:17:22.290Z200.005° SSW
5 mins2024-12-27 02:49:22.290Z131.311° SE2024-12-27 02:51:22.290Z79.766° E31.439°2024-12-27 02:54:22.290Z8.607° NNE
|